[Iaude] MPEC F144: 2019 FM1 [a=1.92,e=0.45,i=9.0,H=23.6]

mpec at mpcdb1.cfa.harvard.edu mpec at mpcdb1.cfa.harvard.edu
Sun Mar 31 18:31:16 EDT 2019


M.P.E.C. 2019-F144                               Issued 2019 Mar. 31, 22:27 UT
 
     The Minor Planet Electronic Circulars contain information on unusual
         minor planets and routine data on comets.  They are published
    on behalf of Division F of the International Astronomical Union by the
          Minor Planet Center, Smithsonian Astrophysical Observatory,
                          Cambridge, MA 02138, U.S.A.

             Prepared using the Tamkin Foundation Computer Network

                              MPC at CFA.HARVARD.EDU
            URL https://www.minorplanetcenter.net/    ISSN 1523-6714


                                   2019 FM1
 
Observations:
     K19F01M* C2019 03 29.20863 11 26 20.27 +00 42 00.8          21.2 GVEF144G96
     K19F01M  C2019 03 29.21425 11 26 21.04 +00 42 12.5          21.5 GVEF144G96
     K19F01M  C2019 03 29.21986 11 26 21.79 +00 42 23.6          21.7 GVEF144G96
     K19F01M  C2019 03 29.22548 11 26 22.61 +00 42 34.8          21.5 GVEF144G96
     K19F01M  C2019 03 29.31141 11 26 34.38 +00 45 27.9          21.6 GVEF144V06
     K19F01M  C2019 03 29.31299 11 26 34.59 +00 45 31.1          21.1 GVEF144V06
     K19F01M  C2019 03 29.31458 11 26 34.80 +00 45 34.2          21.3 GVEF144V06
     K19F01M  C2019 03 29.31617 11 26 35.01 +00 45 37.4          21.3 GVEF144V06
     K19F01M  C2019 03 29.34038711 26 38.24 +00 46 25.1          21.2 GVEF144H01
     K19F01M  C2019 03 29.34429811 26 38.77 +00 46 33.0          21.0 GVEF144H01
     K19F01M  C2019 03 29.35355911 26 40.06 +00 46 51.5          20.5 GVEF144H01
     K19F01M  C2019 03 29.36076311 26 41.06 +00 47 06.0          21.1 GVEF144H01
     K19F01M KC2019 03 30.17730 11 28 44.25 +01 13 48.2                oEF144711
     K19F01M KC2019 03 30.18154 11 28 44.84 +01 13 56.5                oEF144711
     K19F01M KC2019 03 30.18577 11 28 45.36 +01 14 04.2                oEF144711
     K19F01M  C2019 03 30.23213 11 28 51.69 +01 15 33.1          21.2 GVEF144G96
     K19F01M  C2019 03 30.23949 11 28 52.65 +01 15 46.5          21.1 GVEF144G96
     K19F01M  C2019 03 30.24685 11 28 53.63 +01 16 00.5          21.1 GVEF144G96
     K19F01M KC2019 03 30.83534711 30 19.13 +01 34 18.5          21.2 GVEF144L01
     K19F01M KC2019 03 30.83768311 30 19.42 +01 34 23.6          21.1 GVEF144L01
     K19F01M KC2019 03 30.84002111 30 19.74 +01 34 27.9          21.2 GVEF144L01
     K19F01M  C2019 03 31.24967 11 31 17.12 +01 47 03.6          21.9 GVEF144G96
     K19F01M  C2019 03 31.25187 11 31 17.39 +01 47 07.5          21.5 GVEF144G96
     K19F01M  C2019 03 31.25332 11 31 17.57 +01 47 10.0          21.5 GVEF144G96
     K19F01M  C2019 03 31.25476 11 31 17.76 +01 47 12.3          21.4 GVEF144G96
 
Observer details:
711 McDonald Observatory, Fort Davis.  Observer J. G. Ries.  2.1-m reflector
    + CCD + focal reducer.
G96 Mt. Lemmon Survey.  Observers B. M. Africano, D. C. Fuls.  Measurers
    B. M. Africano, E. J. Christensen, G. A. Farneth, D. C. Fuls, A. R. Gibbs,
    A. D. Grauer, H. Groeller, R. A. Kowalski, S. M. Larson, G. J. Leonard,
    T. A. Pruyne, R. L. Seaman, F. C. Shelly.  1.5-m reflector + 10K CCD.
H01 Magdalena Ridge Observatory, Socorro.  Observers W. H. Ryan, E. V. Ryan.
    Measurer W. H. Ryan.  2.4-m f/8.9 Ritchey-Chretien + CCD.
L01 Visnjan Observatory, Tican.  Observers K. Korlevic, D. Segon,
    F. Valentine.  Measurer K. Korlevic.  1.0-m f/2.9 reflector + CCD.
V06 Catalina Sky Survey-Kuiper.  Observer H. Groeller.  Measurers
    B. M. Africano, E. J. Christensen, G. A. Farneth, D. C. Fuls, A. R. Gibbs,
    A. D. Grauer, H. Groeller, R. A. Kowalski, S. M. Larson, G. J. Leonard,
    T. A. Pruyne, R. L. Seaman, F. C. Shelly.  1.55-m reflector + CCD.
 
Orbital elements:
2019 FM1                                                 Earth MOID = 0.1274 AU
Epoch 2019 Apr. 27.0 TT = JDT 2458600.5                 MPC
M  31.35206              (2000.0)            P               Q
n   0.37151957     Peri.  301.22685     -0.63332638     -0.77356424
a   1.9163798      Node   188.18025     +0.75256784     -0.60891764
e   0.4531891      Incl.    9.00558     +0.18038666     -0.17554964
P   2.65           H   23.6           G   0.15           U   8
Residuals in seconds of arc
190329 G96  0.3-  0.0     190329 H01  0.1-  0.0     190330 L01  0.2+  0.9-
190329 G96  0.3-  0.4+    190329 H01  0.0   0.0     190330 L01  0.1-  0.1-
190329 G96  0.7-  0.1+    190329 H01  0.0   0.1+    190330 L01  0.1+  0.1-
190329 G96  0.1+  0.0     190330 711  0.6+  0.3-    190331 G96  0.0   0.4+
190329 V06  0.4+  0.0     190330 711  1.0+  0.1-    190331 G96  0.1-  0.4+
190329 V06  0.3+  0.0     190330 711  0.4+  0.5-    190331 G96  0.2-  0.3+
190329 V06  0.1+  0.1-    190330 G96  0.4-  0.7+    190331 G96  0.1-  0.0
190329 V06  0.0   0.1-    190330 G96  0.6-  0.0
190329 H01  0.1+  0.0     190330 G96  0.4-  0.1-

Ephemeris:
2019 FM1                 a,e,i = 1.92, 0.45, 9                   q = 1.0479
Date    TT    R. A. (2000) Decl.     Delta      r     Elong.  Phase     V
2019 03 01    09 18 45.3 -26 59 30   0.1294  1.0920   139.3    36.3    20.8
...
2019 03 16    10 43 05.8 -09 36 25   0.1615  1.1488   161.4    16.0    20.8
...
2019 03 24    11 11 52.6 -02 38 44   0.1947  1.1862   165.3    12.3    21.2
...
2019 03 30    11 28 17.2 +01 08 25   0.2260  1.2167   163.4    13.6    21.6
2019 03 31    11 30 41.5 +01 39 47   0.2316  1.2220   162.8    14.0    21.7
2019 04 01    11 33 01.1 +02 09 27   0.2375  1.2273   162.2    14.4    21.7
...
2019 04 07    11 45 32.9 +04 34 35   0.2752  1.2603   158.1    17.3    22.2
...
2019 04 15    11 59 30.5 +06 35 03   0.3324  1.3063   152.2    21.0    22.8
...
2019 04 30    12 21 11.2 +07 47 58   0.4597  1.3971   141.7    26.6    23.8

A. U. Tomatic                (C) Copyright 2019 MPC           M.P.E.C. 2019-F144



More information about the Iaude mailing list